sat.trackr.live / text

‹ back to catalog

STARLINK-30198

NORAD 57290 · 2023-096A

PAYLOAD ACTIVE UNKNOWN

§ Identity

Operator
Country
US
Launch date
2023-07-10
Launch site
AFETR
Launch vehicle
Mass (kg)
RCS (m²)

Purposes: comms

External: N2YO · Heavens-Above · Gunter

§ Orbital elements

Epoch: 2026-05-24T12:51:09.803232Z

Period
94.51 min
Inclination
42.9929°
Eccentricity
0.0002988
Mean motion
15.23599572 rev/d
Perigee alt
492.9 km
Apogee alt
497.0 km
Semi-major
6,873.1 km
B*
1.0970e-3
RAAN
158.5095°
Arg perigee
71.6975°
Mean anomaly
288.4200°
Rev number
15,917

§ Raw data

STARLINK-301981 57290U 23096A   26144.53553013  .00026621  00000+0  10970-2 0  99902 57290  42.9929 158.5095 0002988  71.6975 288.4200 15.23599572159170

JSON: /api/v1/satellites/57290 · /tle

For live sub-satellite position, see the globe view (requires WebGL).

§ Visibility from observer

Set your observer location to see the next 7 days of passes ≥ 10°. The values pass through the URL so the page stays shareable.

No JS? Fill the form by hand. The geolocation button needs JavaScript.